TimeEDT,TemperatureF,Dew PointF,Humidity,Sea Level PressureIn,VisibilityMPH,Wind Direction,Wind SpeedMPH,Gust SpeedMPH,PrecipitationIn,Events,Conditions,WindDirDegrees,DateUTC
12:53 AM,45.0,41.0,86,29.71,10.0,South,4.6,-,N/A,,Clear,180,2013-10-18 04:53:00
1:53 AM,41.0,39.9,96,29.70,10.0,SW,3.5,-,N/A,,Clear,220,2013-10-18 05:53:00
2:53 AM,42.1,39.9,92,29.70,10.0,South,3.5,-,N/A,,Clear,190,2013-10-18 06:53:00
3:53 AM,43.0,42.1,97,29.72,10.0,South,5.8,-,N/A,,Mostly Cloudy,190,2013-10-18 07:53:00
4:53 AM,48.0,46.0,93,29.68,7.0,Calm,Calm,-,0.04,Rain,Light Rain,0,2013-10-18 08:53:00
5:53 AM,46.9,46.0,97,29.66,10.0,Calm,Calm,-,0.00,,Overcast,0,2013-10-18 09:53:00
6:53 AM,46.9,46.9,100,29.68,4.0,Calm,Calm,-,0.04,Rain,Rain,0,2013-10-18 10:53:00
7:53 AM,50.0,46.9,89,29.63,10.0,SSE,5.8,-,0.01,,Mostly Cloudy,160,2013-10-18 11:53:00
8:34 AM,50.0,48.2,94,29.64,9.0,Calm,Calm,-,N/A,,Overcast,0,2013-10-18 12:34:00
8:53 AM,50.0,48.0,93,29.64,9.0,Calm,Calm,-,0.00,Rain,Light Rain,0,2013-10-18 12:53:00
9:53 AM,50.0,48.0,93,29.61,4.0,East,4.6,-,0.04,Rain,Rain,80,2013-10-18 13:53:00
10:00 AM,50.0,48.2,94,29.60,1.8,ENE,4.6,-,0.05,Rain,Heavy Rain,70,2013-10-18 14:00:00
10:09 AM,50.0,48.2,94,29.60,3.0,Calm,Calm,-,0.07,Rain,Light Rain,0,2013-10-18 14:09:00
10:22 AM,50.0,48.2,94,29.59,2.0,NE,5.8,-,0.12,Rain,Rain,40,2013-10-18 14:22:00
10:41 AM,50.0,48.2,94,29.57,4.0,ENE,5.8,-,0.15,Rain,Light Rain,60,2013-10-18 14:41:00
10:49 AM,50.0,48.2,94,29.57,3.0,Variable,3.5,-,0.16,Rain,Rain,0,2013-10-18 14:49:00
10:53 AM,50.0,48.9,96,29.58,2.5,NE,4.6,-,0.18,Rain,Rain,40,2013-10-18 14:53:00
11:03 AM,50.0,48.2,94,29.58,2.5,NW,5.8,-,0.02,Rain,Light Rain,310,2013-10-18 15:03:00
11:10 AM,50.0,48.2,94,29.58,1.8,North,4.6,-,0.04,Rain,Rain,360,2013-10-18 15:10:00
11:28 AM,50.0,48.2,94,29.58,2.5,North,5.8,-,0.07,Rain,Light Rain,350,2013-10-18 15:28:00
11:45 AM,50.0,48.2,94,29.58,1.5,North,4.6,-,0.08,Rain,Light Rain,10,2013-10-18 15:45:00
11:53 AM,50.0,48.9,96,29.59,1.8,North,6.9,-,0.09,Rain,Light Rain,360,2013-10-18 15:53:00
12:17 PM,50.0,48.2,94,29.58,1.5,NNW,6.9,-,0.01,Rain,Light Rain,340,2013-10-18 16:17:00
12:27 PM,50.0,48.2,94,29.58,1.2,NNW,8.1,-,0.02,Rain,Light Rain,340,2013-10-18 16:27:00
12:43 PM,51.8,50.0,94,29.58,2.0,NNW,8.1,-,0.03,Rain,Light Rain,340,2013-10-18 16:43:00
12:53 PM,51.1,50.0,96,29.59,2.0,North,8.1,-,0.03,Rain,Light Rain,350,2013-10-18 16:53:00
1:31 PM,51.8,50.0,94,29.58,5.0,North,4.6,-,0.01,,Overcast,350,2013-10-18 17:31:00
1:39 PM,51.8,50.0,94,29.58,10.0,North,8.1,-,0.01,,Overcast,350,2013-10-18 17:39:00
1:53 PM,53.1,50.0,89,29.59,10.0,North,8.1,-,0.01,,Overcast,350,2013-10-18 17:53:00
2:19 PM,53.6,51.8,94,29.58,10.0,NNW,4.6,-,N/A,,Overcast,340,2013-10-18 18:19:00
2:50 PM,53.6,51.8,94,29.59,10.0,NW,5.8,-,N/A,,Overcast,320,2013-10-18 18:50:00
2:53 PM,54.0,51.1,90,29.60,10.0,NNW,4.6,-,N/A,,Overcast,330,2013-10-18 18:53:00
3:05 PM,55.4,51.8,88,29.59,10.0,NNW,4.6,-,N/A,,Overcast,340,2013-10-18 19:05:00
3:53 PM,55.0,51.1,86,29.61,10.0,NW,4.6,-,N/A,,Overcast,310,2013-10-18 19:53:00
4:53 PM,54.0,50.0,86,29.62,10.0,Calm,Calm,-,N/A,,Overcast,0,2013-10-18 20:53:00
5:53 PM,52.0,50.0,93,29.63,10.0,SW,4.6,-,N/A,,Mostly Cloudy,230,2013-10-18 21:53:00
6:08 PM,51.8,48.2,88,29.63,10.0,SW,3.5,-,N/A,,Mostly Cloudy,220,2013-10-18 22:08:00
6:21 PM,51.8,48.2,88,29.63,10.0,SSW,4.6,-,N/A,,Scattered Clouds,200,2013-10-18 22:21:00
6:53 PM,50.0,48.0,93,29.65,10.0,SSW,4.6,-,N/A,,Clear,210,2013-10-18 22:53:00
7:53 PM,48.9,46.9,93,29.65,10.0,South,5.8,-,N/A,,Scattered Clouds,180,2013-10-18 23:53:00
8:53 PM,50.0,46.9,89,29.67,10.0,SSW,4.6,-,N/A,,Scattered Clouds,210,2013-10-19 00:53:00
9:53 PM,48.9,46.0,90,29.69,10.0,SW,5.8,-,N/A,,Scattered Clouds,220,2013-10-19 01:53:00
10:53 PM,50.0,45.0,83,29.70,10.0,SW,5.8,-,N/A,,Overcast,230,2013-10-19 02:53:00
11:53 PM,48.9,44.1,83,29.70,10.0,WSW,4.6,-,N/A,,Scattered Clouds,240,2013-10-19 03:53:00